When you browse on this site, cookies collect data to enhance your experience and personalize the content and advertising you see.
Visit our Privacy Policy to learn more. By continuing to use the site, you agree to this use of cookies and data.

Hourly Weather Maceio

Today, 22 September, Tuesday

Time Temperature Precipitation Wind Pressure Humidity
00:00 +25°C° 0 mm 5 mps 761 mmHg 90%
01:00 +25°C° 0 mm 5 mps 761 mmHg 91%
02:00 +24°C° 0.1 mm 6 mps 761 mmHg 90%
03:00 +24°C° 0.1 mm 6 mps 760 mmHg 90%
04:00 +24°C° 0.1 mm 6 mps 760 mmHg 90%
05:00 +24°C° 0.1 mm 6 mps 761 mmHg 90%
06:00 +25°C° 0.1 mm 5 mps 761 mmHg 89%
07:00 +25°C° 0.1 mm 5 mps 761 mmHg 89%
08:00 +27°C° 0.1 mm 5 mps 762 mmHg 81%
09:00 +28°C° 0.1 mm 5 mps 762 mmHg 73%
10:00 +30°C° 0.1 mm 5 mps 762 mmHg 64%
11:00 +30°C° 0 mm 5 mps 762 mmHg 62%
12:00 +32°C° 0 mm 5 mps 762 mmHg 59%
13:00 +32°C° 0 mm 5 mps 761 mmHg 56%
14:00 +32°C° 0 mm 5 mps 761 mmHg 58%
15:00 +30°C° 0 mm 5 mps 761 mmHg 59%
16:00 +30°C° 0 mm 5 mps 761 mmHg 60%
17:00 +28°C° 0 mm 5 mps 761 mmHg 68%
18:00 +27°C° 0 mm 5 mps 761 mmHg 76%
19:00 +25°C° 0 mm 4 mps 761 mmHg 83%
20:00 +25°C° 0 mm 4 mps 762 mmHg 85%
21:00 +25°C° 0 mm 4 mps 762 mmHg 87%
22:00 +23°C° 0 mm 4 mps 762 mmHg 89%
23:00 +23°C° 0 mm 4 mps 762 mmHg 89%

Tomorrow, 23 September, Wednesday

Time Temperature Precipitation Wind Pressure Humidity
00:00 +23°C° 0 mm 4 mps 762 mmHg 90%
01:00 +23°C° 0 mm 4 mps 762 mmHg 90%
02:00 +23°C° 0.1 mm 4 mps 761 mmHg 90%
03:00 +23°C° 0.1 mm 4 mps 761 mmHg 90%
04:00 +23°C° 0.1 mm 4 mps 761 mmHg 90%
05:00 +23°C° 0 mm 4 mps 761 mmHg 88%
06:00 +23°C° 0 mm 4 mps 761 mmHg 87%
07:00 +25°C° 0 mm 4 mps 761 mmHg 86%
08:00 +26°C° 0.1 mm 4 mps 762 mmHg 78%
09:00 +28°C° 0.1 mm 4 mps 763 mmHg 71%
10:00 +29°C° 0.1 mm 4 mps 763 mmHg 64%
11:00 +29°C° 0.2 mm 4 mps 763 mmHg 65%
12:00 +29°C° 0.2 mm 4 mps 762 mmHg 66%
13:00 +29°C° 0.2 mm 4 mps 762 mmHg 67%
14:00 +29°C° 0.1 mm 4 mps 762 mmHg 67%
15:00 +29°C° 0.1 mm 5 mps 761 mmHg 67%
16:00 +29°C° 0.1 mm 5 mps 761 mmHg 67%
17:00 +28°C° 0 mm 5 mps 761 mmHg 72%
18:00 +26°C° 0 mm 4 mps 762 mmHg 76%
19:00 +25°C° 0 mm 4 mps 762 mmHg 81%
20:00 +25°C° 0.1 mm 4 mps 762 mmHg 83%
21:00 +25°C° 0.1 mm 4 mps 762 mmHg 85%
22:00 +23°C° 0.1 mm 4 mps 763 mmHg 87%
23:00 +23°C° 0.2 mm 4 mps 762 mmHg 88%

Day after tomorrow, 24 September, Thursday

Time Temperature Precipitation Wind Pressure Humidity
00:00 +23°C° 0.2 mm 5 mps 762 mmHg 88%
01:00 +25°C° 0.2 mm 5 mps 762 mmHg 88%
02:00 +23°C° 0.2 mm 5 mps 762 mmHg 89%
03:00 +23°C° 0.2 mm 5 mps 761 mmHg 89%
04:00 +23°C° 0.2 mm 5 mps 761 mmHg 90%
05:00 +23°C° 0.2 mm 4 mps 761 mmHg 89%
06:00 +23°C° 0.2 mm 4 mps 761 mmHg 88%
07:00 +23°C° 0.2 mm 4 mps 762 mmHg 87%
08:00 +26°C° 0.1 mm 4 mps 762 mmHg 77%
09:00 +28°C° 0.1 mm 4 mps 762 mmHg 68%
10:00 +30°C° 0.1 mm 4 mps 763 mmHg 58%
11:00 +30°C° 0 mm 5 mps 762 mmHg 55%
12:00 +32°C° 0 mm 5 mps 762 mmHg 52%
13:00 +32°C° 0 mm 5 mps 761 mmHg 49%
14:00 +32°C° 0 mm 5 mps 761 mmHg 53%
15:00 +30°C° 0 mm 5 mps 760 mmHg 56%
16:00 +29°C° 0 mm 5 mps 760 mmHg 60%
17:00 +28°C° 0 mm 5 mps 760 mmHg 68%
18:00 +26°C° 0 mm 4 mps 761 mmHg 77%
19:00 +25°C° 0 mm 4 mps 761 mmHg 85%
20:00 +23°C° 0.1 mm 4 mps 761 mmHg 87%
21:00 +23°C° 0.1 mm 4 mps 762 mmHg 88%
22:00 +23°C° 0.1 mm 4 mps 762 mmHg 90%
23:00 +23°C° 0.4 mm 4 mps 762 mmHg 90%

25 September, Friday

Time Temperature Precipitation Wind Pressure Humidity
00:00 +23°C° 0.4 mm 4 mps 762 mmHg 91%
01:00 +23°C° 0.4 mm 5 mps 761 mmHg 91%
02:00 +23°C° 0.4 mm 5 mps 761 mmHg 90%
03:00 +23°C° 0.4 mm 5 mps 761 mmHg 90%
04:00 +23°C° 0.4 mm 5 mps 760 mmHg 89%
05:00 +23°C° 0.1 mm 5 mps 761 mmHg 89%
06:00 +23°C° 0.1 mm 5 mps 761 mmHg 89%
07:00 +23°C° 0.1 mm 5 mps 761 mmHg 89%
08:00 +26°C° 0.2 mm 5 mps 762 mmHg 82%
09:00 +27°C° 0.2 mm 6 mps 762 mmHg 76%
10:00 +28°C° 0.2 mm 6 mps 762 mmHg 69%
11:00 +29°C° 0.1 mm 6 mps 762 mmHg 64%
12:00 +30°C° 0.1 mm 6 mps 761 mmHg 59%
13:00 +32°C° 0.1 mm 6 mps 761 mmHg 54%
14:00 +30°C° 0 mm 5 mps 761 mmHg 54%
15:00 +30°C° 0 mm 5 mps 760 mmHg 55%
16:00 +29°C° 0 mm 5 mps 760 mmHg 56%
17:00 +28°C° 0 mm 5 mps 760 mmHg 65%
18:00 +26°C° 0 mm 4 mps 760 mmHg 73%
19:00 +25°C° 0 mm 4 mps 761 mmHg 82%
20:00 +23°C° 0 mm 4 mps 761 mmHg 84%
21:00 +23°C° 0 mm 4 mps 761 mmHg 86%
22:00 +23°C° 0 mm 4 mps 761 mmHg 88%
23:00 +23°C° 0.4 mm 4 mps 761 mmHg 89%

26 September, Saturday

Time Temperature Precipitation Wind Pressure Humidity
00:00 +22°C° 0.4 mm 4 mps 761 mmHg 90%
01:00 +22°C° 0.4 mm 4 mps 761 mmHg 91%
02:00 +22°C° 0.3 mm 4 mps 760 mmHg 91%
03:00 +22°C° 0.3 mm 4 mps 760 mmHg 90%
04:00 +22°C° 0.3 mm 4 mps 760 mmHg 90%
05:00 +23°C° 0 mm 4 mps 760 mmHg 89%
06:00 +24°C° 0 mm 3 mps 760 mmHg 89%
07:00 +24°C° 0 mm 3 mps 761 mmHg 88%
08:00 +26°C° 0 mm 3 mps 761 mmHg 80%
09:00 +28°C° 0 mm 3 mps 762 mmHg 71%
10:00 +29°C° 0 mm 3 mps 762 mmHg 62%
11:00 +30°C° 0 mm 4 mps 761 mmHg 59%
12:00 +32°C° 0 mm 4 mps 761 mmHg 56%
13:00 +32°C° 0 mm 4 mps 760 mmHg 52%
14:00 +32°C° 0.1 mm 4 mps 760 mmHg 56%
15:00 +30°C° 0.1 mm 5 mps 760 mmHg 61%
16:00 +29°C° 0.1 mm 5 mps 759 mmHg 65%
17:00 +28°C° 0.1 mm 5 mps 760 mmHg 72%
18:00 +26°C° 0.1 mm 4 mps 760 mmHg 79%
19:00 +25°C° 0.1 mm 4 mps 760 mmHg 87%
20:00 +25°C° 0 mm 4 mps 761 mmHg 88%
21:00 +23°C° 0 mm 4 mps 761 mmHg 89%
22:00 +23°C° 0 mm 5 mps 761 mmHg 90%
23:00 +23°C° 0 mm 4 mps 761 mmHg 90%

27 September, Sunday

Time Temperature Precipitation Wind Pressure Humidity
00:00 +23°C° 0 mm 4 mps 760 mmHg 90%
01:00 +23°C° 0 mm 4 mps 760 mmHg 90%
02:00 +22°C° 0 mm 4 mps 760 mmHg 91%
03:00 +22°C° 0 mm 4 mps 759 mmHg 91%
04:00 +22°C° 0 mm 4 mps 759 mmHg 92%
05:00 +23°C° 0.1 mm 4 mps 759 mmHg 91%
06:00 +23°C° 0.1 mm 4 mps 760 mmHg 89%
07:00 +23°C° 0.1 mm 4 mps 760 mmHg 88%
08:00 +26°C° 0 mm 4 mps 760 mmHg 78%
09:00 +28°C° 0 mm 4 mps 761 mmHg 68%
10:00 +30°C° 0 mm 4 mps 761 mmHg 57%
11:00 +32°C° 0 mm 4 mps 761 mmHg 55%
12:00 +32°C° 0 mm 4 mps 760 mmHg 54%
13:00 +33°C° 0 mm 4 mps 760 mmHg 52%
14:00 +32°C° 0 mm 4 mps 759 mmHg 55%
15:00 +30°C° 0 mm 4 mps 759 mmHg 59%
16:00 +30°C° 0 mm 5 mps 759 mmHg 62%
17:00 +28°C° 0.1 mm 4 mps 759 mmHg 70%
18:00 +27°C° 0.1 mm 4 mps 759 mmHg 78%
19:00 +25°C° 0.1 mm 4 mps 759 mmHg 87%
20:00 +25°C° 0.1 mm 4 mps 760 mmHg 88%
21:00 +25°C° 0.1 mm 5 mps 760 mmHg 89%
22:00 +25°C° 0.1 mm 5 mps 760 mmHg 91%
23:00 +25°C° 0.1 mm 5 mps 760 mmHg 91%
Show more